• în Republica Moldova
  • Lista ţărilor
  • Pe 7 zile
  • Temperatura apei
  • Hartă satelitară
  • Meteo pe hartă
  • Widget-uri
  • user-avatar
    Intrare

    Meteo pe oră la Melbourne

    Astăzi, 26 Februarie, Duminică

    Timp Temperatura Precipitaţii Vânt Presiune Umiditate
    00:00 +14°C° 0 mm 3 m/s 764 mmHg 92%
    01:00 +14°C° 0 mm 3 m/s 764 mmHg 93%
    02:00 +15°C° 0 mm 2 m/s 764 mmHg 93%
    03:00 +15°C° 0 mm 2 m/s 764 mmHg 93%
    04:00 +15°C° 0 mm 2 m/s 763 mmHg 93%
    05:00 +15°C° 0 mm 2 m/s 764 mmHg 92%
    06:00 +16°C° 0 mm 1 m/s 764 mmHg 91%
    07:00 +16°C° 0 mm 1 m/s 764 mmHg 90%
    08:00 +20°C° 0 mm 1 m/s 764 mmHg 77%
    09:00 +22°C° 0 mm 1 m/s 764 mmHg 65%
    10:00 +25°C° 0 mm 1 m/s 765 mmHg 53%
    11:00 +27°C° 0 mm 1 m/s 764 mmHg 48%
    12:00 +29°C° 0 mm 1 m/s 764 mmHg 43%
    13:00 +30°C° 0 mm 1 m/s 763 mmHg 39%
    14:00 +31°C° 0 mm 2 m/s 763 mmHg 37%
    15:00 +31°C° 0 mm 2 m/s 763 mmHg 36%
    16:00 +31°C° 0 mm 2 m/s 762 mmHg 35%
    17:00 +29°C° 0 mm 2 m/s 763 mmHg 42%
    18:00 +27°C° 0 mm 2 m/s 763 mmHg 48%
    19:00 +25°C° 0 mm 3 m/s 763 mmHg 55%
    20:00 +23°C° 0 mm 2 m/s 763 mmHg 63%
    21:00 +20°C° 0 mm 2 m/s 764 mmHg 71%
    22:00 +18°C° 0 mm 2 m/s 764 mmHg 79%
    23:00 +18°C° 0 mm 2 m/s 764 mmHg 81%

    Mâine, 27 Februarie, Luni

    Timp Temperatura Precipitaţii Vânt Presiune Umiditate
    00:00 +18°C° 0 mm 1 m/s 764 mmHg 83%
    01:00 +16°C° 0 mm 1 m/s 764 mmHg 85%
    02:00 +18°C° 0 mm 1 m/s 764 mmHg 82%
    03:00 +18°C° 0 mm 1 m/s 764 mmHg 78%
    04:00 +19°C° 0 mm 1 m/s 764 mmHg 74%
    05:00 +18°C° 0 mm 2 m/s 765 mmHg 72%
    06:00 +19°C° 0 mm 2 m/s 765 mmHg 69%
    07:00 +19°C° 0 mm 2 m/s 765 mmHg 67%
    08:00 +23°C° 0 mm 2 m/s 765 mmHg 58%
    09:00 +25°C° 0 mm 2 m/s 766 mmHg 48%
    10:00 +28°C° 0 mm 2 m/s 766 mmHg 39%
    11:00 +30°C° 0 mm 2 m/s 765 mmHg 35%
    12:00 +32°C° 0 mm 1 m/s 765 mmHg 32%
    13:00 +34°C° 0 mm 1 m/s 764 mmHg 28%
    14:00 +34°C° 0 mm 1 m/s 764 mmHg 27%
    15:00 +35°C° 0 mm 2 m/s 763 mmHg 27%
    16:00 +35°C° 0 mm 2 m/s 763 mmHg 26%
    17:00 +31°C° 0 mm 2 m/s 763 mmHg 32%
    18:00 +29°C° 0 mm 2 m/s 763 mmHg 38%
    19:00 +27°C° 0 mm 2 m/s 763 mmHg 44%
    20:00 +25°C° 0 mm 2 m/s 763 mmHg 52%
    21:00 +23°C° 0 mm 2 m/s 764 mmHg 60%
    22:00 +21°C° 0 mm 2 m/s 764 mmHg 67%
    23:00 +21°C° 0 mm 1 m/s 764 mmHg 69%

    Poimâine, 28 Februarie, Marţi

    Timp Temperatura Precipitaţii Vânt Presiune Umiditate
    00:00 +21°C° 0 mm 1 m/s 764 mmHg 70%
    01:00 +20°C° 0 mm 1 m/s 764 mmHg 72%
    02:00 +20°C° 0 mm 1 m/s 763 mmHg 70%
    03:00 +21°C° 0 mm 1 m/s 763 mmHg 69%
    04:00 +21°C° 0 mm 1 m/s 763 mmHg 67%
    05:00 +21°C° 0 mm 1 m/s 764 mmHg 65%
    06:00 +20°C° 0 mm 2 m/s 764 mmHg 64%
    07:00 +21°C° 0 mm 2 m/s 765 mmHg 62%
    08:00 +24°C° 0 mm 2 m/s 765 mmHg 54%
    09:00 +27°C° 0 mm 2 m/s 765 mmHg 46%
    10:00 +29°C° 0 mm 2 m/s 765 mmHg 38%
    11:00 +31°C° 0 mm 1 m/s 764 mmHg 34%
    12:00 +33°C° 0 mm 1 m/s 764 mmHg 29%
    13:00 +34°C° 0 mm 0 m/s 763 mmHg 25%
    14:00 +35°C° 0 mm 1 m/s 763 mmHg 26%
    15:00 +35°C° 0 mm 2 m/s 763 mmHg 26%
    16:00 +35°C° 0 mm 2 m/s 762 mmHg 26%
    17:00 +32°C° 0 mm 2 m/s 762 mmHg 31%
    18:00 +30°C° 0 mm 2 m/s 763 mmHg 36%
    19:00 +28°C° 0 mm 2 m/s 763 mmHg 42%
    20:00 +26°C° 0 mm 2 m/s 763 mmHg 48%
    21:00 +24°C° 0 mm 1 m/s 763 mmHg 54%
    22:00 +22°C° 0 mm 1 m/s 764 mmHg 60%
    23:00 +21°C° 0 mm 1 m/s 764 mmHg 62%

    1 Martie, Miercuri

    Timp Temperatura Precipitaţii Vânt Presiune Umiditate
    00:00 +20°C° 0 mm 1 m/s 763 mmHg 64%
    01:00 +17°C° 0 mm 0 m/s 763 mmHg 66%
    02:00 +17°C° 0 mm 0 m/s 763 mmHg 66%
    03:00 +16°C° 0 mm 0 m/s 763 mmHg 65%
    04:00 +16°C° 0 mm 0 m/s 763 mmHg 65%
    05:00 +17°C° 0 mm 0 m/s 763 mmHg 60%
    06:00 +21°C° 0 mm 1 m/s 764 mmHg 55%
    07:00 +22°C° 0 mm 1 m/s 764 mmHg 50%
    08:00 +25°C° 0 mm 1 m/s 764 mmHg 45%
    09:00 +28°C° 0 mm 1 m/s 764 mmHg 40%
    10:00 +31°C° 0 mm 1 m/s 764 mmHg 35%
    11:00 +32°C° 0 mm 1 m/s 764 mmHg 32%
    12:00 +33°C° 0 mm 1 m/s 763 mmHg 29%
    13:00 +35°C° 0 mm 2 m/s 763 mmHg 25%
    14:00 +35°C° 0 mm 2 m/s 762 mmHg 25%
    15:00 +35°C° 0 mm 3 m/s 762 mmHg 25%
    16:00 +35°C° 0 mm 3 m/s 761 mmHg 25%
    17:00 +33°C° 0 mm 3 m/s 762 mmHg 30%
    18:00 +30°C° 0 mm 2 m/s 762 mmHg 35%
    19:00 +28°C° 0 mm 2 m/s 762 mmHg 40%
    20:00 +25°C° 0 mm 2 m/s 763 mmHg 48%
    21:00 +23°C° 0 mm 2 m/s 763 mmHg 57%
    22:00 +21°C° 0 mm 1 m/s 763 mmHg 65%
    23:00 +20°C° 0 mm 1 m/s 763 mmHg 67%

    2 Martie, Joi

    Timp Temperatura Precipitaţii Vânt Presiune Umiditate
    00:00 +20°C° 0 mm 1 m/s 763 mmHg 68%
    01:00 +17°C° 0 mm 0 m/s 763 mmHg 69%
    02:00 +19°C° 0 mm 1 m/s 763 mmHg 70%
    03:00 +18°C° 0 mm 1 m/s 762 mmHg 70%
    04:00 +18°C° 0 mm 1 m/s 762 mmHg 70%
    05:00 +19°C° 0 mm 1 m/s 763 mmHg 67%
    06:00 +20°C° 0 mm 1 m/s 763 mmHg 65%
    07:00 +21°C° 0 mm 1 m/s 763 mmHg 62%
    08:00 +23°C° 0 mm 1 m/s 763 mmHg 54%
    09:00 +26°C° 0 mm 1 m/s 763 mmHg 45%
    10:00 +29°C° 0 mm 2 m/s 764 mmHg 36%
    11:00 +30°C° 0 mm 2 m/s 763 mmHg 34%
    12:00 +31°C° 0 mm 3 m/s 762 mmHg 32%
    13:00 +33°C° 0 mm 3 m/s 762 mmHg 30%
    14:00 +33°C° 0 mm 3 m/s 762 mmHg 31%
    15:00 +33°C° 0 mm 4 m/s 761 mmHg 32%
    16:00 +33°C° 0 mm 4 m/s 761 mmHg 33%
    17:00 +30°C° 0 mm 3 m/s 761 mmHg 40%
    18:00 +28°C° 0 mm 3 m/s 762 mmHg 47%
    19:00 +26°C° 0 mm 2 m/s 762 mmHg 54%
    20:00 +25°C° 0 mm 2 m/s 762 mmHg 64%
    21:00 +23°C° 0 mm 2 m/s 763 mmHg 73%
    22:00 +20°C° 0 mm 2 m/s 763 mmHg 83%
    23:00 +20°C° 0 mm 2 m/s 763 mmHg 88%

    3 Martie, Vineri

    Timp Temperatura Precipitaţii Vânt Presiune Umiditate
    00:00 +19°C° 0 mm 2 m/s 763 mmHg 92%
    01:00 +19°C° 0 mm 2 m/s 762 mmHg 97%
    02:00 +19°C° 0 mm 2 m/s 762 mmHg 97%
    03:00 +19°C° 0 mm 2 m/s 762 mmHg 97%
    04:00 +19°C° 0 mm 2 m/s 762 mmHg 97%
    05:00 +19°C° 0 mm 2 m/s 763 mmHg 96%
    06:00 +19°C° 0 mm 2 m/s 763 mmHg 94%
    07:00 +19°C° 0 mm 2 m/s 764 mmHg 93%
    08:00 +21°C° 0 mm 3 m/s 764 mmHg 86%
    09:00 +22°C° 0 mm 3 m/s 764 mmHg 80%
    10:00 +24°C° 0 mm 3 m/s 764 mmHg 73%
    11:00 +26°C° 0 mm 3 m/s 764 mmHg 66%
    12:00 +27°C° 0 mm 4 m/s 763 mmHg 59%
    13:00 +28°C° 0 mm 4 m/s 763 mmHg 53%
    14:00 +28°C° 0 mm 4 m/s 763 mmHg 53%
    15:00 +28°C° 0 mm 4 m/s 762 mmHg 53%
    16:00 +28°C° 0 mm 4 m/s 762 mmHg 53%
    17:00 +26°C° 0 mm 4 m/s 762 mmHg 58%
    18:00 +25°C° 0 mm 4 m/s 763 mmHg 63%
    19:00 +24°C° 0 mm 3 m/s 763 mmHg 68%
    20:00 +22°C° 0 mm 3 m/s 763 mmHg 74%
    21:00 +20°C° 0 mm 3 m/s 763 mmHg 79%
    22:00 +19°C° 0 mm 3 m/s 764 mmHg 84%
    23:00 +19°C° 0 mm 3 m/s 763 mmHg 87%
    Arată mai mult